Skip Page Navigation
NASA JPL Caltech
NASA Logo - Jet Propulsion Laboratory + View the NASA Portal
+ Near-Earth Object (NEO) Program
Search JPL
JPL Home Earth Solar System Stars & Galaxies Technology
JPL Solar System Dynamics
BODIES ORBITS EPHEMERIDES TOOLS PHYSICAL DATA DISCOVERY FAQ SITE MAP
JPL Small-Body Database Browser
Search: [ help ]  
466 Tisiphone (1901 FX)
Classification: Outer Main-belt Asteroid          SPK-ID: 2000466
Ephemeris | Orbit Diagram | Orbital Elements | Physical Parameters | Discovery Circumstances | Close-Approach Data ]

[ hide orbit diagram ]
Orbit Diagram
Note: Make sure you have Java enabled on your browser to see the applet. This applet is provided as a 3D orbit visualization tool. The applet was implemented using 2-body methods, and hence should not be used for determining accurate long-term trajectories (over several years or decades) or planetary encounter circumstances. For accurate long-term ephemerides, please instead use our Horizons system.
Orbit Viewer

Additional Notes: the orbits shown in the applet are color coded. The planets are white lines, and the asteroid/comet is a blue line. The bright white line indicates the portion of the orbit that is above the ecliptic plane, and the darker portion is below the ecliptic plane. Likewise for the asteroid/comet orbit, the light blue indicates the portion above the ecliptic plane, and the dark blue the portion below the ecliptic plane.

Orbit Viewer applet originally written and kindly provided by Osamu Ajiki (AstroArts), and further modified by Ron Baalke (JPL).


Orbital Elements at Epoch 2456400.5 (2013-Apr-18.0) TDB
Reference: JPL 66 (heliocentric ecliptic J2000)
 Element Value Uncertainty (1-sigma)   Units 
e .09145547244234881 5.7138e-08  
a 3.352822515527873 2.6603e-08 AU
q 3.046188548354927 2.0517e-07 AU
i 19.11269673982196 7.9868e-06 deg
node 290.8929587789651 1.7074e-05 deg
peri 249.1482310963492 4.4793e-05 deg
M 7.024748103908562 4.2764e-05 deg
tp 2456356.743504837476
(2013-Mar-05.24350484)
0.00026617 JED
period 2242.406136918123
6.14
2.6688e-05
7.307e-08
d
yr
n .1605418367677009 1.9107e-09 deg/d
Q 3.659456482700819 2.9035e-08 AU
  Orbit Determination Parameters
   # obs. used (total)      1142  
   data-arc span      40985 days (112.21 yr)  
   first obs. used      1901-01-19  
   last obs. used      2013-04-06  
   planetary ephem.      DE405  
   SB-pert. ephem.      SB405-CPV-2  
   condition code      0  
   fit RMS      .63465  
   data source      ORB  
   producer      Otto Matic  
   solution date      2013-Apr-29 12:35:36  

Additional Information
 Earth MOID = 2.11495 AU 
 T_jup = 3.063 
[ show covariance matrix ]

Ephemeris | Orbit Diagram | Orbital Elements | Physical Parameters | Discovery Circumstances | Close-Approach Data ]

Physical Parameter Table
Parameter Symbol Value Units Sigma Reference Notes
absolute magnitude H 8.30 mag n/a IRAS-A-FPA-3-RDR-IMPS-V6.0 IRAS observations used: 28
diameter diameter 115.53 km 2.2 IRAS-A-FPA-3-RDR-IMPS-V6.0 IRAS observations used: 28
rotation period rot_per 8.824 h n/a Asteroid Lightcurve DataBase (Rev. 2013-May-01) Published Reference List:
[Worman, W.E.; Christianson, K. (1999) Minor Planet Bul. 26, 9-10.]
[Lagerkvist, C.-I.; Erikson, A.; Lahulla, F.; Di Martino, M.; et al. (2001) Icarus 149, 190-197.]
geometric albedo albedo 0.0634   0.002 IRAS-A-FPA-3-RDR-IMPS-V6.0 IRAS observations used: 28
B-V BV .659 mag .022 EAR-A-5-DDR-UBV-MEAN-VALUES-V1.1 #obs=2; phase (min.=6.38, mean=11.54, max.=16.70) deg.
U-B UB .342 mag .070 EAR-A-5-DDR-UBV-MEAN-VALUES-V1.1 #obs=2; phase (min.=6.38, mean=11.54, max.=16.70) deg.
Tholen spectral type spec_T C   n/a EAR-A-5-DDR-TAXONOMY-V4.0 used 7 color indices

466 Tisiphone (1901 FX)          Discovered 1901-Jan-17 by Wolf, M. and Carnera, L. at Heidelberg (024)
Reference: DISCOVERY.DBLast Updated: 2003-08-29

[ show close-approach data ]
Alternate Designations
 1901 FX = 1953 NP 
Ephemeris | Orbit Diagram | Orbital Elements | Physical Parameters | Discovery Circumstances | Close-Approach Data ]
ABOUT SSD CREDITS/AWARDS PRIVACY/COPYRIGHT GLOSSARY LINKS
FirstGov 2013-May-21 13:36 UT
(server date/time)  
NASA Home Page
Site Manager:   Donald K. Yeomans
Webmaster  Alan B. Chamberlin